When you browse on this site, cookies collect data to enhance your experience and personalize the content and advertising you see.
Visit our Privacy Policy to learn more. By continuing to use the site, you agree to this use of cookies and data.
  • In Hungary
  • List of Countries
  • For 7 days
  • Water Temperature
  • Weather Map
  • News
  • Weather Widgets
  • user-avatar
    Login

    Hourly Weather Natitingou

    Today, 14 November, Thursday

    Time Temperature Precipitation Wind Pressure Humidity
    00:00 +28°C° 0 mm 1 mps 716 mmHg 36%
    01:00 +27°C° 0 mm 1 mps 716 mmHg 37%
    02:00 +27°C° 0 mm 1 mps 715 mmHg 38%
    03:00 +26°C° 0 mm 1 mps 715 mmHg 39%
    04:00 +26°C° 0 mm 1 mps 715 mmHg 38%
    05:00 +25°C° 0 mm 2 mps 716 mmHg 37%
    06:00 +25°C° 0 mm 2 mps 716 mmHg 35%
    07:00 +27°C° 0 mm 2 mps 717 mmHg 32%
    08:00 +29°C° 0 mm 2 mps 717 mmHg 28%
    09:00 +31°C° 0 mm 3 mps 718 mmHg 24%
    10:00 +34°C° 0 mm 3 mps 717 mmHg 23%
    11:00 +35°C° 0 mm 2 mps 717 mmHg 21%
    12:00 +37°C° 0 mm 2 mps 716 mmHg 19%
    13:00 +37°C° 0 mm 2 mps 716 mmHg 19%
    14:00 +37°C° 0 mm 2 mps 715 mmHg 19%
    15:00 +37°C° 0 mm 2 mps 714 mmHg 20%
    16:00 +34°C° 0 mm 1 mps 714 mmHg 23%
    17:00 +32°C° 0 mm 1 mps 714 mmHg 26%
    18:00 +30°C° 0 mm 1 mps 714 mmHg 29%
    19:00 +29°C° 0 mm 1 mps 715 mmHg 30%
    20:00 +29°C° 0 mm 1 mps 715 mmHg 30%
    21:00 +28°C° 0 mm 1 mps 716 mmHg 31%
    22:00 +28°C° 0 mm 1 mps 716 mmHg 32%
    23:00 +27°C° 0 mm 1 mps 716 mmHg 32%

    Tomorrow, 15 November, Friday

    Time Temperature Precipitation Wind Pressure Humidity
    00:00 +27°C° 0 mm 1 mps 715 mmHg 33%
    01:00 +26°C° 0 mm 1 mps 715 mmHg 33%
    02:00 +26°C° 0 mm 1 mps 715 mmHg 33%
    03:00 +26°C° 0 mm 1 mps 715 mmHg 34%
    04:00 +25°C° 0 mm 1 mps 715 mmHg 34%
    05:00 +25°C° 0 mm 1 mps 715 mmHg 35%
    06:00 +24°C° 0 mm 1 mps 715 mmHg 35%
    07:00 +27°C° 0 mm 1 mps 716 mmHg 31%
    08:00 +30°C° 0 mm 1 mps 717 mmHg 27%
    09:00 +33°C° 0 mm 1 mps 717 mmHg 22%
    10:00 +34°C° 0 mm 1 mps 717 mmHg 20%
    11:00 +36°C° 0 mm 1 mps 716 mmHg 18%
    12:00 +38°C° 0 mm 2 mps 716 mmHg 16%
    13:00 +38°C° 0 mm 2 mps 715 mmHg 17%
    14:00 +38°C° 0 mm 2 mps 715 mmHg 17%
    15:00 +38°C° 0 mm 2 mps 714 mmHg 17%
    16:00 +35°C° 0 mm 1 mps 714 mmHg 20%
    17:00 +33°C° 0 mm 1 mps 714 mmHg 23%
    18:00 +30°C° 0 mm 1 mps 714 mmHg 26%
    19:00 +30°C° 0 mm 1 mps 714 mmHg 27%
    20:00 +27°C° 0 mm 0 mps 715 mmHg 28%
    21:00 +27°C° 0 mm 0 mps 716 mmHg 28%
    22:00 +26°C° 0 mm 0 mps 715 mmHg 29%
    23:00 +26°C° 0 mm 0 mps 715 mmHg 30%

    Day after tomorrow, 16 November, Saturday

    Time Temperature Precipitation Wind Pressure Humidity
    00:00 +25°C° 0 mm 0 mps 715 mmHg 31%
    01:00 +25°C° 0 mm 0 mps 715 mmHg 32%
    02:00 +24°C° 0 mm 0 mps 715 mmHg 33%
    03:00 +24°C° 0 mm 0 mps 715 mmHg 34%
    04:00 +23°C° 0 mm 0 mps 715 mmHg 35%
    05:00 +23°C° 0 mm 0 mps 715 mmHg 36%
    06:00 +23°C° 0 mm 0 mps 715 mmHg 38%
    07:00 +26°C° 0 mm 0 mps 716 mmHg 34%
    08:00 +28°C° 0 mm 0 mps 717 mmHg 31%
    09:00 +31°C° 0 mm 0 mps 717 mmHg 27%
    10:00 +35°C° 0 mm 1 mps 717 mmHg 24%
    11:00 +36°C° 0 mm 1 mps 716 mmHg 21%
    12:00 +39°C° 0 mm 2 mps 716 mmHg 18%
    13:00 +38°C° 0 mm 2 mps 715 mmHg 18%
    14:00 +38°C° 0 mm 2 mps 714 mmHg 18%
    15:00 +38°C° 0 mm 2 mps 714 mmHg 18%
    16:00 +36°C° 0 mm 2 mps 714 mmHg 21%
    17:00 +34°C° 0 mm 2 mps 713 mmHg 24%
    18:00 +31°C° 0 mm 1 mps 713 mmHg 27%
    19:00 +30°C° 0 mm 1 mps 714 mmHg 27%
    20:00 +30°C° 0 mm 1 mps 714 mmHg 27%
    21:00 +29°C° 0 mm 1 mps 715 mmHg 27%
    22:00 +28°C° 0 mm 1 mps 715 mmHg 28%
    23:00 +28°C° 0 mm 1 mps 715 mmHg 30%

    17 November, Sunday

    Time Temperature Precipitation Wind Pressure Humidity
    00:00 +27°C° 0 mm 1 mps 715 mmHg 31%
    01:00 +27°C° 0 mm 1 mps 715 mmHg 32%
    02:00 +24°C° 0 mm 0 mps 715 mmHg 34%
    03:00 +24°C° 0 mm 0 mps 714 mmHg 35%
    04:00 +23°C° 0 mm 0 mps 715 mmHg 37%
    05:00 +23°C° 0 mm 0 mps 715 mmHg 40%
    06:00 +23°C° 0 mm 0 mps 715 mmHg 42%
    07:00 +27°C° 0 mm 1 mps 716 mmHg 39%
    08:00 +30°C° 0 mm 1 mps 716 mmHg 36%
    09:00 +32°C° 0 mm 1 mps 717 mmHg 33%
    10:00 +34°C° 0 mm 1 mps 716 mmHg 29%
    11:00 +36°C° 0 mm 1 mps 716 mmHg 25%
    12:00 +37°C° 0 mm 1 mps 716 mmHg 22%
    13:00 +38°C° 0 mm 2 mps 715 mmHg 20%
    14:00 +39°C° 0 mm 2 mps 714 mmHg 19%
    15:00 +39°C° 0 mm 2 mps 714 mmHg 18%
    16:00 +36°C° 0 mm 2 mps 714 mmHg 21%
    17:00 +34°C° 0 mm 2 mps 714 mmHg 23%
    18:00 +31°C° 0 mm 1 mps 714 mmHg 26%
    19:00 +30°C° 0 mm 1 mps 714 mmHg 26%
    20:00 +30°C° 0 mm 1 mps 715 mmHg 26%
    21:00 +29°C° 0 mm 1 mps 715 mmHg 25%
    22:00 +28°C° 0 mm 1 mps 715 mmHg 26%
    23:00 +28°C° 0 mm 1 mps 715 mmHg 27%

    18 November, Monday

    Time Temperature Precipitation Wind Pressure Humidity
    00:00 +27°C° 0 mm 1 mps 715 mmHg 27%
    01:00 +27°C° 0 mm 1 mps 715 mmHg 29%
    02:00 +26°C° 0 mm 1 mps 715 mmHg 31%
    03:00 +25°C° 0 mm 1 mps 715 mmHg 33%
    04:00 +23°C° 0 mm 0 mps 715 mmHg 37%
    05:00 +22°C° 0 mm 0 mps 715 mmHg 41%
    06:00 +22°C° 0 mm 0 mps 715 mmHg 45%
    07:00 +26°C° 0 mm 1 mps 716 mmHg 46%
    08:00 +29°C° 0 mm 1 mps 716 mmHg 47%
    09:00 +31°C° 0 mm 2 mps 717 mmHg 47%
    10:00 +34°C° 0 mm 2 mps 716 mmHg 38%
    11:00 +36°C° 0 mm 2 mps 716 mmHg 28%
    12:00 +38°C° 0 mm 2 mps 716 mmHg 18%
    13:00 +38°C° 0 mm 2 mps 715 mmHg 17%
    14:00 +39°C° 0 mm 3 mps 714 mmHg 16%
    15:00 +39°C° 0 mm 3 mps 714 mmHg 14%
    16:00 +36°C° 0 mm 2 mps 714 mmHg 17%
    17:00 +34°C° 0 mm 2 mps 714 mmHg 19%
    18:00 +31°C° 0 mm 1 mps 714 mmHg 22%
    19:00 +30°C° 0 mm 1 mps 714 mmHg 22%
    20:00 +29°C° 0 mm 1 mps 715 mmHg 22%
    21:00 +29°C° 0 mm 1 mps 715 mmHg 23%
    22:00 +28°C° 0 mm 1 mps 715 mmHg 23%
    23:00 +28°C° 0 mm 1 mps 715 mmHg 24%

    19 November, Tuesday

    Time Temperature Precipitation Wind Pressure Humidity
    00:00 +27°C° 0 mm 1 mps 715 mmHg 25%
    01:00 +27°C° 0 mm 1 mps 715 mmHg 26%
    02:00 +26°C° 0 mm 1 mps 715 mmHg 28%
    03:00 +25°C° 0 mm 1 mps 715 mmHg 30%
    04:00 +25°C° 0 mm 1 mps 715 mmHg 35%
    05:00 +24°C° 0 mm 1 mps 715 mmHg 40%
    06:00 +22°C° 0 mm 0 mps 715 mmHg 45%
    07:00 +26°C° 0 mm 1 mps 716 mmHg 42%
    08:00 +29°C° 0 mm 1 mps 717 mmHg 39%
    09:00 +32°C° 0 mm 1 mps 717 mmHg 36%
    10:00 +34°C° 0 mm 1 mps 717 mmHg 30%
    11:00 +36°C° 0 mm 1 mps 716 mmHg 25%
    12:00 +39°C° 0 mm 1 mps 716 mmHg 19%
    13:00 +39°C° 0 mm 1 mps 715 mmHg 18%
    14:00 +39°C° 0 mm 2 mps 715 mmHg 16%
    15:00 +39°C° 0 mm 2 mps 714 mmHg 15%
    16:00 +37°C° 0 mm 2 mps 714 mmHg 18%
    17:00 +33°C° 0 mm 1 mps 714 mmHg 21%
    18:00 +31°C° 0 mm 1 mps 714 mmHg 24%
    19:00 +30°C° 0 mm 1 mps 714 mmHg 25%
    20:00 +30°C° 0 mm 1 mps 715 mmHg 26%
    21:00 +29°C° 0 mm 1 mps 715 mmHg 27%
    22:00 +28°C° 0 mm 1 mps 715 mmHg 30%
    23:00 +28°C° 0 mm 1 mps 715 mmHg 33%
    Show more